Wind_Speed
44 44 43 41 40 41 40 41 41 42 41 40 40 40 40 40 41 42 43 43 43 43 43 44 45 45 46 46 45 45 45 45 44 42 40 39 38 38
45 45 43 41 41 40 40 40 41 41 41 41 41 40 39 40 40 42 42 43 43 43 43 43 44 45 46 44 44 44 44 43 41 39 38 36 36 36
44 43 42 41 41 40 39 39 39 40 40 40 40 40 40 40 41 41 42 42 43 43 44 44 44 44 43 43 43 43 42 40 38 37 35 35 36 36
42 42 41 40 40 40 40 39 39 40 40 39 39 40 40 40 40 39 40 41 42 43 44 45 45 43 42 41 41 40 39 38 36 35 36 36 35 35
41 41 40 40 39 39 39 39 39 39 39 38 39 39 39 39 39 40 40 40 41 42 42 42 42 41 41 40 39 38 36 35 35 35 35 36 36 36
40 40 40 39 39 39 39 38 38 38 38 38 38 37 37 38 39 40 41 41 41 41 41 40 39 40 40 39 38 36 35 35 34 34 35 36 36 36
39 39 39 39 37 37 37 37 37 36 36 36 36 36 37 37 37 39 40 40 40 39 39 39 38 38 36 35 35 35 35 35 35 35 35 35 35 35
38 38 38 38 37 36 35 35 35 35 35 35 36 36 37 37 37 37 38 39 38 38 38 37 36 35 34 34 34 35 34 34 34 35 34 34 34 34
37 36 37 37 37 36 36 35 35 35 35 35 35 35 35 36 36 36 36 37 37 36 36 35 33 33 33 34 33 34 34 33 34 34 33 32 31 31
36 36 35 35 34 35 35 35 34 34 33 34 34 33 33 33 34 34 35 35 36 36 35 34 32 31 32 33 33 33 32 32 31 30 30 30 30 29
36 35 35 34 33 34 33 33 32 32 32 32 32 31 31 32 33 33 33 33 33 33 34 32 31 32 32 33 33 32 30 28 27 28 28 28 28 28
35 35 35 34 34 34 34 33 32 32 32 31 30 29 30 31 32 32 32 32 32 31 31 31 31 31 30 30 30 29 28 28 28 29 28 28 28 27
33 33 33 33 33 33 33 32 32 32 31 30 29 28 28 29 30 30 31 31 29 29 29 29 29 29 28 28 28 28 27 27 27 27 27 27 26 26
32 33 32 32 32 32 31 31 30 30 29 29 28 28 28 28 28 28 28 27 27 27 28 28 27 27 27 26 26 26 26 26 25 25 25 24 24 24
31 32 32 32 32 31 30 30 29 29 28 28 27 27 27 27 27 26 25 26 26 26 26 26 26 26 25 24 24 24 24 24 24 23 23 22 21 21
31 31 31 31 31 30 29 29 28 27 26 25 25 26 25 25 24 23 24 24 24 24 24 24 25 24 23 23 23 24 24 23 22 22 20 19 18 18
30 30 30 29 29 29 28 27 26 26 24 23 23 23 22 22 22 22 22 22 22 22 21 21 22 22 22 22 23 23 22 21 20 19 17 16 17 17
28 28 27 27 27 27 26 25 24 24 23 22 22 21 20 20 20 20 20 20 20 20 19 19 20 21 21 21 21 20 19 18 17 16 15 15 15 16
26 26 25 25 25 25 24 24 24 23 22 21 20 19 18 18 18 18 19 19 19 19 19 18 19 19 19 18 18 17 16 15 14 14 14 14 15 16
23 23 23 23 23 23 23 22 22 21 21 20 19 18 17 17 17 18 18 18 18 18 18 17 17 17 17 16 15 15 14 13 13 13 13 13 14 14
21 21 21 21 21 21 21 21 20 20 19 18 17 17 16 16 16 17 17 17 17 17 16 16 16 15 15 14 13 12 11 12 13 13 13 13 12 13
19 19 20 20 21 20 20 19 19 18 17 16 15 14 14 15 16 16 17 17 16 15 15 14 13 12 11 11 10 10 10 11 12 13 14 13 13 12
18 18 19 19 19 18 18 17 17 17 16 15 15 14 14 14 14 14 14 13 13 12 12 11 10 9 9 9 8 8 9 10 11 12 13 14 14 14
Wind_Direction
270 271 272 272 271 270 272 274 274 274 275 277 278 280 282 285 288 291 292 294 295 296 296 297 298 298 297 298 300 301 301 301 301 301 301 301 300 300
271 271 270 270 269 270 272 274 274 275 274 276 278 280 282 285 287 291 293 295 296 297 297 298 300 299 299 297 299 300 301 301 301 301 302 302 301 301
269 269 268 268 269 270 271 273 272 273 276 278 279 279 282 285 288 291 292 294 296 297 298 298 299 301 300 299 299 299 300 300 300 301 301 301 301 301
266 267 267 267 268 270 271 270 271 272 275 278 279 281 283 285 289 291 294 297 297 298 299 300 299 300 301 300 299 299 299 300 300 300 301 301 300 300
264 266 266 267 268 269 270 270 272 272 274 277 279 282 283 286 289 291 294 297 299 300 300 300 300 301 300 300 300 300 301 301 301 301 301 302 301 300
262 264 266 267 268 268 269 271 272 273 274 276 279 281 284 287 289 291 294 298 300 300 300 300 300 300 300 300 301 301 301 302 303 303 302 302 301 302
262 264 266 267 268 268 269 269 271 273 274 275 279 282 285 288 290 292 295 298 300 301 301 301 300 301 302 302 302 303 303 303 303 303 303 302 302 302
263 265 265 266 265 266 268 269 271 273 276 277 279 282 285 288 290 292 294 299 301 302 302 302 301 301 301 302 303 303 302 302 302 302 302 303 304 304
263 265 266 265 264 266 266 267 270 273 277 278 279 282 286 288 290 293 296 299 302 302 303 303 303 301 302 304 304 304 303 303 303 302 303 305 306 306
262 264 265 265 264 265 265 267 269 273 277 278 279 283 285 288 291 294 297 300 302 303 304 305 304 304 305 305 306 306 305 305 306 306 306 306 308 309
262 263 263 263 263 264 265 266 268 271 275 277 278 282 285 289 292 296 298 301 303 305 306 305 305 305 305 306 307 308 308 308 307 308 309 311 311 311
262 262 262 262 262 261 263 264 266 269 273 276 278 282 286 289 294 296 298 301 303 304 306 306 305 305 306 308 309 309 309 309 309 311 311 312 313 314
262 264 264 263 262 262 262 265 267 269 273 275 276 281 285 289 291 294 298 301 303 306 307 307 308 309 309 309 310 309 309 310 311 313 313 314 314 315
261 262 262 262 263 263 264 266 267 267 270 274 277 281 285 288 290 294 297 301 303 306 309 311 312 311 311 311 311 311 311 311 312 314 315 315 316 318
260 261 261 261 263 265 266 266 266 267 269 273 276 280 283 286 289 292 297 300 303 306 308 311 314 315 315 314 314 314 314 313 313 316 317 318 319 320
261 260 260 260 261 263 264 264 264 266 269 271 274 278 280 284 287 290 295 300 302 303 306 309 313 315 317 319 319 318 317 316 317 319 320 322 323 323
258 259 259 258 260 262 263 262 263 264 265 267 272 276 280 282 285 290 293 297 301 302 304 309 312 315 318 320 322 322 320 319 322 324 327 329 329 328
255 253 254 257 259 260 260 259 259 260 262 266 269 273 277 280 283 287 292 297 301 302 303 307 311 315 318 322 324 324 323 324 326 330 334 335 337 338
250 248 251 253 253 254 255 256 256 258 261 264 268 271 274 277 281 287 293 297 300 302 303 305 310 314 319 322 325 326 329 332 334 335 338 341 344 345
249 247 248 248 249 251 255 256 256 259 260 261 264 267 271 277 281 286 293 298 300 302 303 303 309 315 320 324 327 329 333 339 342 344 344 344 349 354
249 247 245 244 246 249 253 254 254 256 257 258 261 266 271 275 280 286 292 297 301 302 303 304 309 315 321 326 330 335 341 346 349 351 353 353 356 359
248 246 245 245 247 251 251 249 249 250 253 255 259 262 268 276 282 288 293 295 298 301 303 304 307 313 323 329 332 338 345 352 357 359 360 3 6 8
247 246 246 246 248 249 247 245 244 246 250 251 255 259 264 274 283 289 294 296 298 300 302 303 304 311 324 326 329 337 347 357 2 5 7 8 9 10
Height
5683 5683 5682 5682 5681 5680 5679 5678 5678 5676 5676 5674 5672 5671 5668 5666 5663 5659 5655 5651 5647 5643 5638 5634 5629 5624 5618 5613 5607 5602 5596 5591 5585 5579 5574 5569 5564 5559
5671 5671 5671 5671 5670 5670 5669 5668 5667 5666 5665 5664 5663 5661 5659 5656 5653 5649 5646 5642 5638 5633 5628 5623 5618 5613 5607 5602 5597 5591 5586 5580 5575 5569 5564 5559 5554 5549
5660 5660 5660 5660 5660 5659 5659 5658 5657 5656 5655 5655 5653 5651 5649 5647 5644 5640 5636 5632 5628 5623 5618 5612 5607 5602 5597 5592 5586 5581 5576 5570 5565 5560 5555 5550 5545 5540
5649 5649 5649 5649 5649 5649 5648 5648 5647 5646 5645 5644 5643 5641 5639 5637 5634 5631 5627 5622 5618 5613 5608 5602 5597 5592 5587 5582 5576 5571 5566 5561 5556 5551 5547 5542 5536 5531
5638 5638 5638 5639 5639 5638 5638 5637 5637 5636 5635 5634 5633 5631 5629 5627 5624 5621 5617 5613 5608 5603 5598 5592 5587 5582 5576 5571 5566 5561 5556 5552 5548 5542 5537 5532 5527 5522
5627 5627 5628 5628 5628 5628 5628 5628 5627 5626 5626 5625 5624 5622 5620 5618 5615 5612 5608 5603 5598 5594 5588 5583 5577 5572 5567 5562 5557 5552 5548 5543 5538 5533 5528 5523 5518 5513
5617 5617 5618 5618 5618 5618 5618 5618 5618 5617 5616 5615 5614 5613 5611 5608 5606 5602 5599 5594 5590 5584 5579 5574 5568 5563 5558 5553 5548 5543 5539 5534 5529 5524 5519 5514 5509 5503
5607 5607 5608 5608 5608 5608 5608 5608 5608 5607 5607 5606 5605 5603 5602 5599 5597 5593 5589 5586 5581 5577 5570 5565 5559 5554 5549 5544 5539 5534 5530 5525 5521 5515 5510 5505 5500 5495
5596 5597 5598 5598 5598 5599 5599 5599 5599 5598 5597 5596 5595 5594 5592 5591 5588 5584 5580 5576 5571 5566 5561 5556 5551 5546 5541 5536 5531 5526 5521 5516 5512 5507 5502 5497 5492 5487
5586 5587 5588 5588 5588 5589 5589 5589 5589 5589 5588 5588 5587 5585 5583 5580 5578 5575 5571 5567 5563 5557 5552 5548 5543 5538 5533 5528 5523 5518 5513 5508 5504 5499 5494 5489 5485 5480
5576 5577 5578 5579 5579 5579 5580 5580 5580 5580 5579 5578 5578 5576 5574 5572 5569 5566 5563 5560 5556 5550 5545 5541 5536 5531 5526 5521 5516 5510 5506 5501 5497 5492 5487 5483 5478 5473
5566 5567 5568 5569 5570 5570 5570 5571 5571 5571 5571 5570 5569 5568 5566 5564 5561 5559 5556 5552 5548 5544 5539 5534 5529 5524 5521 5515 5510 5505 5500 5495 5491 5486 5481 5477 5472 5467
5556 5557 5559 5560 5560 5560 5561 5561 5562 5562 5562 5561 5561 5559 5558 5556 5554 5551 5548 5545 5541 5537 5532 5528 5523 5518 5513 5509 5505 5500 5495 5490 5486 5481 5476 5471 5467 5462
5547 5548 5549 5550 5551 5551 5551 5552 5553 5553 5553 5553 5552 5552 5550 5548 5546 5544 5541 5538 5534 5531 5526 5522 5517 5513 5508 5504 5500 5495 5490 5485 5481 5476 5472 5467 5462 5458
5537 5538 5539 5541 5541 5542 5543 5543 5544 5544 5545 5545 5545 5544 5543 5541 5539 5537 5534 5531 5528 5525 5521 5516 5512 5508 5503 5499 5495 5490 5486 5482 5477 5472 5468 5463 5459 5454
5527 5529 5530 5531 5532 5533 5534 5535 5535 5536 5537 5537 5537 5536 5535 5534 5532 5531 5529 5526 5523 5520 5516 5512 5508 5504 5499 5495 5490 5486 5481 5477 5473 5468 5464 5460 5455 5451
5518 5519 5521 5522 5524 5525 5526 5526 5527 5528 5529 5529 5529 5529 5528 5527 5526 5525 5523 5520 5518 5515 5511 5508 5504 5500 5496 5491 5487 5482 5478 5474 5470 5466 5462 5458 5453 5449
5509 5510 5512 5514 5516 5517 5518 5519 5520 5521 5522 5522 5522 5522 5522 5521 5520 5519 5517 5515 5513 5510 5507 5504 5500 5497 5493 5488 5484 5479 5475 5472 5468 5464 5460 5456 5452 5448
5501 5502 5504 5506 5508 5509 5510 5512 5513 5514 5515 5515 5516 5516 5516 5516 5515 5514 5512 5510 5508 5505 5502 5499 5497 5494 5490 5486 5482 5477 5473 5470 5466 5463 5459 5455 5451 5447
5493 5495 5497 5499 5500 5502 5503 5505 5506 5507 5508 5509 5510 5510 5511 5510 5510 5509 5507 5506 5503 5501 5498 5496 5493 5490 5487 5484 5480 5476 5472 5469 5465 5462 5459 5455 5451 5447
5487 5488 5490 5492 5493 5495 5496 5498 5499 5500 5501 5503 5504 5505 5505 5505 5505 5504 5502 5501 5499 5497 5495 5492 5490 5487 5484 5481 5478 5475 5472 5468 5464 5461 5458 5454 5451 5447
5481 5482 5484 5486 5487 5489 5490 5492 5493 5495 5496 5497 5498 5499 5500 5500 5499 5499 5497 5496 5494 5493 5491 5489 5487 5484 5482 5480 5477 5475 5472 5468 5465 5461 5457 5454 5451 5447
5475 5477 5478 5480 5481 5483 5485 5486 5488 5490 5491 5492 5493 5494 5495 5495 5494 5494 5493 5492 5490 5489 5488 5486 5484 5482 5481 5479 5476 5474 5471 5468 5465 5462 5458 5454 5451 5448